Location: Asheville, NC
(35.6000°N, 82.5500°W)
Time: 20:10:55

RS-15 - Pass Details

Date: 15 March 2018
Orbit: 1888 x 2157 km, 64.8° (Epoch: 19 March)

Event Time Altitude Azimuth Distance (km) Brightness Sun altitude
Rises 05:44:36 0° 315° (NW) 5,620 10.2 -24.2°
Reaches altitude 10° 05:51:02 10° 340° (NNW) 4,565 9.9 -23.0°
Maximum altitude 05:56:39 14° 9° (N) 4,175 10.0 -21.9°
Drops below altitude 10° 06:02:10 10° 38° (NE) 4,456 10.6 -20.8°
Sets 06:08:14 0° 63° (ENE) 5,395 11.8 -19.6°
